Wind_Speed
25 26 26 27 26 26 26 27 26 27 26 25 25 25 26 25 25 26 26 26 26 25 25 24 24 24 24 24 24 24 24 24 24 25 25 25 25 26 27 27 28 28 29
24 25 25 26 26 26 25 25 26 26 25 24 24 24 24 24 23 23 23 23 24 24 24 25 24 24 24 23 23 23 23 23 24 24 24 24 24 25 25 26 27 27 28
24 24 25 25 25 25 24 24 23 23 23 23 22 22 22 22 22 22 22 22 22 22 22 24 24 24 24 23 23 22 23 23 23 23 23 24 24 24 25 26 26 26 27
23 23 23 23 22 22 22 21 21 21 21 20 19 19 20 20 20 20 20 21 21 20 20 21 21 22 22 21 21 22 21 21 21 22 22 22 23 23 23 24 24 24 25
21 21 21 20 19 18 18 17 17 17 16 16 16 16 17 17 17 17 17 17 18 18 18 18 18 19 21 20 19 19 20 20 20 21 21 21 21 21 21 21 21 22 22
19 19 18 17 16 15 15 14 13 13 13 13 13 13 13 13 13 13 13 14 15 15 15 15 16 17 17 17 17 18 18 18 18 18 17 18 18 18 18 18 18 18 18
17 16 15 14 13 12 12 11 10 10 10 10 9 10 10 10 10 10 10 10 11 11 11 11 12 13 14 14 14 13 13 14 14 14 14 15 15 15 15 15 15 15 15
13 13 12 11 10 10 9 8 7 7 7 7 7 6 6 6 6 6 6 6 5 5 6 6 7 8 9 9 10 10 9 10 11 12 12 13 13 13 12 12 12 13 13
11 10 9 9 8 7 6 5 5 5 5 4 4 4 3 3 3 2 2 2 2 2 2 3 3 3 4 4 5 5 6 7 8 8 9 9 9 9 9 9 10 10 10
8 7 7 7 6 6 5 4 3 3 2 2 2 1 1 2 2 2 0 0 1 2 2 2 2 2 2 2 2 3 4 5 5 5 5 6 6 6 6 7 8 8 9
6 5 5 4 4 4 3 3 2 2 1 1 2 2 2 1 1 2 3 2 2 3 3 3 3 2 2 2 1 1 2 3 3 3 3 3 4 4 4 5 6 7 8
4 4 4 3 4 4 3 3 3 3 3 3 3 3 3 3 3 3 3 3 4 4 4 4 4 4 4 4 3 2 2 1 0 1 1 2 2 3 3 4 5 6 7
3 3 3 4 4 4 4 4 4 4 4 4 5 5 5 5 5 5 5 5 5 5 6 6 6 6 6 5 5 4 4 3 3 2 2 2 2 3 4 5 6 7 7
4 4 4 5 6 6 6 6 7 7 7 7 7 8 8 8 8 8 8 9 9 9 8 7 7 7 6 6 6 6 6 5 5 5 5 4 4 4 5 5 6 7 8
5 5 5 6 7 7 8 8 9 9 9 9 9 9 10 11 11 11 11 10 10 9 9 8 8 8 7 7 7 7 7 8 8 7 7 7 7 6 6 7 7 8 9
6 7 7 7 7 7 8 9 9 9 10 10 10 11 11 11 11 11 11 11 11 10 10 10 10 10 10 10 10 10 10 10 9 9 9 9 8 8 8 8 9 10 11
8 8 8 8 8 8 9 9 10 10 11 11 12 12 12 12 12 11 11 11 11 12 11 11 11 11 11 11 11 11 11 11 10 10 10 10 10 10 10 10 10 11 12
9 9 10 10 10 10 10 10 11 11 12 12 12 12 12 12 12 12 12 12 12 12 12 12 12 12 12 12 12 12 12 12 11 11 11 11 11 11 11 11 12 12 13
11 11 11 11 12 12 12 12 12 12 12 12 12 12 12 12 12 12 11 12 12 12 12 12 12 12 12 12 12 12 11 11 11 11 11 11 11 11 12 12 13 14 14
12 12 12 12 12 13 13 13 13 13 13 13 12 12 11 11 11 11 11 11 11 11 11 11 11 11 11 11 11 10 10 10 10 10 10 10 11 12 12 13 14 15 16
12 12 12 12 12 12 12 12 12 12 12 11 11 11 11 10 10 10 10 10 10 10 10 10 10 9 9 9 9 9 9 9 9 9 10 11 11 12 13 14 15 16 17
11 11 11 11 11 10 10 10 10 10 10 10 10 9 9 9 9 9 9 8 8 9 9 8 8 8 8 8 8 8 8 8 9 9 10 11 12 13 14 15 16 18 19
9 9 9 9 9 9 8 8 8 8 8 8 8 8 8 8 7 7 7 7 7 7 7 7 6 6 6 6 7 7 8 8 9 10 10 12 13 14 15 17 18 20 21
6 6 7 7 7 7 7 7 6 6 6 6 6 6 6 5 5 5 5 5 5 5 5 5 5 5 6 6 7 7 8 9 9 11 12 13 14 16 17 19 20 22 23
4 4 4 5 5 5 5 4 4 4 4 4 4 3 3 3 3 2 2 2 2 2 3 4 4 5 6 6 7 8 9 10 11 12 13 15 16 17 19 20 22 24 26
1 1 2 2 2 2 2 2 2 2 1 1 1 1 1 1 0 1 2 2 3 4 4 5 6 6 7 8 9 10 10 12 13 14 16 17 18 19 21 22 24 26 27
Wind_Direction
280 280 279 279 280 280 278 277 276 275 274 274 275 275 273 272 270 268 267 267 265 263 262 261 259 257 258 259 259 259 262 262 261 259 260 259 257 260 262 263 264 265 266
283 283 282 281 281 280 281 280 277 275 275 275 275 274 272 271 270 268 267 267 265 263 261 260 258 257 257 257 257 259 260 261 260 259 260 260 262 262 263 264 266 266 267
284 285 285 284 283 282 281 281 278 277 276 275 273 273 273 272 271 270 269 268 265 263 262 259 258 258 259 258 258 258 260 260 259 260 262 262 263 263 264 265 267 269 270
288 288 289 289 287 284 281 280 279 278 277 275 274 273 273 272 270 270 269 269 268 262 262 262 260 258 257 257 257 258 259 258 258 260 262 263 264 266 267 268 269 270 270
290 291 292 293 291 288 285 283 281 279 279 275 275 276 275 273 271 270 269 268 266 261 260 259 258 258 254 256 257 257 256 256 258 260 262 265 266 268 270 271 271 272 274
290 292 294 295 295 292 288 287 281 280 278 276 276 278 278 275 272 273 271 268 265 261 257 255 254 253 254 255 256 257 257 257 258 261 264 265 268 270 271 273 274 275 277
293 294 295 297 299 297 293 287 283 282 281 281 279 279 281 279 279 278 275 272 267 261 258 253 251 252 252 256 256 257 259 256 258 261 265 266 269 270 272 273 274 277 280
296 298 298 300 302 299 297 292 287 285 287 285 283 286 293 291 290 287 282 280 268 263 260 252 246 247 251 250 250 255 259 261 262 264 267 268 268 270 273 276 279 280 282
300 300 301 303 308 309 308 304 295 291 291 296 296 303 305 302 305 300 286 285 275 250 231 224 233 244 241 238 241 247 259 263 262 262 265 266 267 272 277 281 285 289 291
307 307 310 312 317 321 322 328 322 313 312 305 327 357 357 333 331 347 196 217 177 156 158 166 173 180 184 194 215 233 248 251 254 261 266 272 279 283 286 289 293 297 299
316 326 334 334 338 339 343 352 358 3 12 25 17 12 21 27 66 83 110 116 126 133 130 129 127 128 133 140 164 213 240 245 253 262 278 286 291 301 307 309 310 313 313
342 353 4 12 16 24 35 42 50 61 66 60 53 60 69 79 90 95 105 119 117 116 118 118 115 107 99 96 93 84 77 88 29 291 291 318 335 339 341 340 337 335 332
25 35 42 46 51 56 59 62 66 74 76 73 76 81 85 93 97 96 98 108 114 113 109 104 98 91 84 82 81 76 69 65 65 59 47 36 25 16 9 1 355 352 348
60 65 72 72 71 70 70 75 81 84 85 87 89 90 91 93 94 97 101 103 104 104 103 97 92 90 86 79 73 73 72 71 68 67 64 58 50 40 28 19 11 4 2
82 86 89 86 82 79 80 83 84 84 86 88 89 90 93 95 94 94 97 99 99 98 97 95 92 87 84 81 78 76 77 76 74 74 68 62 58 52 42 32 24 18 10
90 90 90 89 86 86 88 90 90 89 90 94 95 95 95 95 95 94 94 94 94 94 94 93 91 88 85 83 83 81 78 76 75 73 70 65 60 52 43 34 25 17 10
92 93 91 91 90 91 92 92 91 91 93 95 96 95 95 96 97 96 96 94 92 91 91 90 89 87 85 84 81 78 76 74 73 70 67 62 55 48 40 32 24 17 13
92 91 89 90 93 96 96 96 95 95 96 96 96 94 94 94 95 95 95 94 92 91 90 88 88 87 84 82 80 77 74 71 69 66 61 55 49 44 38 31 24 17 12
89 89 89 90 93 94 96 98 99 99 98 97 96 95 93 93 93 94 94 93 92 91 89 88 87 85 83 80 77 73 70 67 65 61 55 49 42 36 30 25 20 15 9
90 91 92 92 93 94 95 97 98 98 97 96 94 94 94 94 94 93 92 91 90 89 88 87 85 82 79 76 72 69 66 63 58 51 43 36 30 26 20 15 11 7 3
90 93 95 96 96 95 96 98 98 98 98 97 96 96 96 96 95 94 91 90 88 86 85 83 80 76 72 69 66 62 57 51 44 36 29 24 19 15 11 7 3 1 358
92 94 95 96 97 98 100 100 99 99 99 99 99 99 98 96 96 94 92 89 85 82 80 77 73 68 64 59 53 47 41 34 27 22 16 11 7 4 360 357 354 352 350
94 94 96 97 96 95 96 98 99 100 101 101 100 100 99 98 96 94 91 87 82 78 73 67 61 55 46 39 33 27 21 16 12 8 3 359 357 355 353 351 350 348 346
92 94 97 97 95 93 93 95 97 98 100 103 102 101 100 100 99 95 90 85 77 66 57 47 36 27 20 15 11 7 3 360 356 353 352 351 350 349 347 346 344 343 342
93 96 99 101 99 97 97 97 96 95 98 102 103 103 102 101 96 83 69 55 36 20 10 5 0 357 354 351 349 347 345 343 343 342 343 343 342 341 341 340 339 338 338
116 121 119 117 116 120 124 119 110 103 103 114 122 125 124 119 50 327 320 317 319 320 322 325 327 329 331 331 331 331 331 331 332 332 333 333 334 334 334 335 334 335 335
Height
5776 5775 5773 5772 5770 5768 5767 5766 5765 5764 5763 5763 5762 5762 5762 5762 5762 5762 5762 5763 5763 5764 5765 5766 5767 5768 5769 5770 5771 5771 5772 5773 5774 5775 5776 5776 5777 5778 5778 5778 5779 5779 5779
5769 5768 5766 5764 5762 5761 5760 5758 5758 5757 5756 5755 5755 5755 5755 5754 5754 5755 5755 5755 5756 5757 5758 5759 5760 5761 5762 5763 5764 5765 5766 5767 5768 5768 5769 5770 5770 5771 5771 5772 5772 5772 5772
5762 5761 5759 5757 5755 5753 5752 5751 5750 5750 5749 5748 5748 5748 5748 5748 5748 5748 5748 5749 5749 5750 5751 5752 5753 5754 5756 5757 5758 5759 5760 5761 5761 5762 5763 5763 5764 5764 5765 5765 5765 5765 5765
5756 5754 5752 5750 5748 5747 5746 5745 5744 5743 5743 5742 5742 5742 5742 5741 5742 5742 5742 5742 5743 5744 5745 5746 5747 5748 5750 5751 5752 5753 5754 5755 5756 5756 5757 5757 5758 5758 5758 5759 5759 5759 5759
5750 5748 5746 5744 5743 5741 5740 5739 5738 5738 5737 5737 5737 5737 5736 5736 5736 5736 5737 5737 5737 5738 5739 5740 5741 5743 5744 5745 5747 5748 5749 5750 5751 5751 5751 5752 5752 5753 5753 5753 5753 5753 5753
5745 5743 5742 5740 5738 5737 5736 5735 5734 5733 5733 5733 5732 5732 5732 5732 5732 5732 5732 5733 5733 5733 5734 5735 5736 5737 5739 5740 5741 5743 5744 5745 5746 5746 5747 5747 5748 5748 5748 5748 5748 5748 5748
5740 5739 5738 5736 5734 5733 5732 5731 5730 5730 5730 5729 5729 5729 5728 5728 5728 5728 5728 5729 5729 5729 5730 5731 5732 5733 5735 5736 5737 5738 5739 5740 5741 5742 5743 5743 5743 5744 5744 5744 5744 5743 5743
5737 5735 5734 5733 5732 5730 5729 5728 5728 5727 5727 5727 5726 5726 5726 5726 5726 5726 5726 5726 5726 5727 5728 5728 5729 5731 5732 5733 5734 5735 5736 5737 5738 5738 5738 5739 5739 5740 5740 5740 5740 5740 5739
5734 5733 5732 5730 5729 5728 5727 5726 5726 5725 5725 5725 5725 5725 5725 5724 5724 5724 5725 5725 5725 5726 5726 5727 5728 5729 5730 5731 5732 5733 5734 5734 5735 5735 5735 5736 5736 5736 5737 5737 5737 5736 5736
5732 5731 5730 5728 5728 5727 5726 5725 5725 5724 5724 5724 5724 5724 5724 5724 5724 5724 5724 5725 5725 5726 5726 5727 5728 5729 5729 5730 5731 5731 5732 5732 5733 5733 5734 5734 5734 5734 5734 5734 5734 5734 5733
5730 5729 5728 5727 5727 5726 5725 5725 5724 5724 5724 5724 5724 5724 5724 5724 5724 5724 5725 5725 5726 5726 5727 5727 5728 5729 5729 5730 5730 5731 5731 5731 5732 5732 5733 5733 5733 5733 5733 5732 5732 5732 5731
5729 5729 5728 5727 5727 5726 5725 5725 5725 5725 5724 5724 5724 5724 5724 5725 5725 5725 5725 5726 5727 5727 5728 5728 5729 5729 5729 5730 5730 5730 5731 5731 5731 5732 5732 5732 5732 5732 5732 5731 5731 5730 5730
5730 5729 5728 5728 5727 5727 5726 5726 5726 5726 5726 5726 5726 5726 5726 5726 5726 5726 5726 5727 5728 5728 5729 5729 5730 5730 5730 5731 5731 5731 5731 5731 5731 5731 5732 5732 5732 5731 5731 5731 5730 5729 5728
5730 5730 5730 5729 5729 5728 5728 5728 5727 5727 5727 5727 5728 5728 5728 5728 5728 5728 5729 5729 5729 5730 5731 5731 5731 5732 5732 5732 5732 5732 5732 5732 5732 5732 5732 5732 5732 5731 5731 5730 5730 5729 5728
5732 5732 5731 5731 5731 5731 5731 5730 5730 5730 5730 5730 5730 5730 5730 5730 5731 5731 5731 5732 5732 5732 5733 5733 5733 5734 5734 5734 5734 5734 5734 5733 5733 5733 5733 5733 5732 5732 5731 5731 5730 5729 5727
5733 5733 5733 5733 5733 5733 5733 5733 5733 5733 5733 5733 5733 5733 5733 5734 5734 5734 5734 5735 5735 5735 5735 5736 5736 5736 5736 5736 5736 5736 5736 5735 5735 5735 5735 5734 5734 5733 5732 5731 5730 5729 5727
5736 5736 5736 5736 5735 5735 5735 5736 5736 5736 5736 5736 5736 5737 5737 5737 5737 5738 5738 5738 5739 5739 5739 5739 5739 5739 5739 5739 5739 5739 5738 5738 5738 5737 5737 5736 5735 5734 5733 5732 5731 5729 5727
5738 5738 5738 5738 5738 5738 5738 5738 5739 5739 5740 5740 5740 5741 5741 5741 5741 5741 5742 5742 5742 5742 5742 5742 5742 5742 5742 5742 5742 5742 5741 5741 5740 5739 5739 5738 5737 5736 5734 5733 5731 5729 5727
5742 5742 5742 5742 5742 5742 5742 5742 5743 5743 5743 5744 5744 5744 5745 5745 5745 5745 5745 5746 5746 5746 5746 5746 5746 5746 5745 5745 5745 5744 5744 5743 5742 5741 5740 5739 5738 5737 5735 5733 5731 5729 5727
5746 5746 5746 5746 5746 5746 5746 5746 5747 5747 5747 5747 5748 5748 5748 5749 5749 5749 5749 5749 5749 5749 5749 5749 5749 5749 5748 5748 5747 5747 5746 5745 5744 5743 5742 5740 5739 5737 5735 5734 5731 5729 5726
5750 5750 5750 5750 5750 5750 5750 5751 5751 5751 5751 5751 5752 5752 5752 5752 5753 5753 5753 5753 5753 5752 5752 5752 5752 5751 5751 5750 5749 5749 5748 5747 5746 5744 5743 5741 5740 5738 5736 5733 5731 5728 5725
5754 5754 5754 5754 5754 5754 5754 5754 5754 5755 5755 5755 5755 5755 5756 5756 5756 5756 5756 5756 5755 5755 5755 5754 5754 5753 5753 5752 5751 5750 5749 5748 5747 5745 5743 5742 5740 5737 5735 5733 5730 5727 5723
5758 5758 5758 5758 5757 5758 5758 5758 5758 5758 5758 5758 5758 5758 5758 5758 5758 5758 5758 5758 5758 5757 5757 5756 5756 5755 5754 5753 5752 5751 5750 5748 5747 5745 5743 5741 5739 5737 5734 5731 5728 5725 5721
5761 5761 5761 5761 5760 5760 5760 5761 5761 5761 5761 5761 5761 5761 5761 5761 5761 5761 5760 5760 5759 5759 5758 5757 5757 5756 5755 5754 5752 5751 5750 5748 5746 5744 5742 5740 5738 5735 5732 5729 5725 5722 5718
5763 5763 5763 5763 5763 5763 5763 5763 5763 5763 5763 5762 5762 5762 5762 5762 5762 5762 5762 5761 5760 5760 5759 5758 5757 5756 5755 5753 5752 5750 5749 5747 5745 5743 5741 5738 5736 5732 5729 5726 5722 5718 5714
5765 5765 5765 5764 5764 5764 5764 5764 5764 5764 5764 5764 5764 5763 5763 5763 5763 5762 5762 5761 5760 5760 5759 5758 5756 5755 5754 5752 5751 5749 5747 5745 5743 5741 5738 5735 5732 5729 5726 5722 5718 5714 5709